Temperature
18 18 18 18 18 17 17 17 17 16 16 16 16 15 15 15 15 14 14 14 14 14 14 14 14 14 14 14 14 14 14 14 14 15 15 15 15 15 15 15 15 15 15
19 18 18 18 18 17 17 17 17 16 16 16 16 15 15 15 15 14 14 14 14 14 14 14 14 14 14 14 14 14 14 14 14 15 15 16 16 15 15 15 15 15 15
19 18 18 18 18 18 17 17 17 17 16 16 16 16 15 15 15 14 14 14 14 14 14 14 14 14 14 14 14 14 14 14 14 14 15 16 16 15 15 15 15 14 15
18 18 18 18 18 18 17 17 17 17 16 16 16 16 15 15 15 15 14 14 14 14 14 14 14 14 14 14 14 14 14 14 14 14 14 14 14 15 15 15 15 15 14
18 18 18 18 18 18 17 17 17 17 16 16 16 16 15 15 15 15 14 14 14 14 14 14 14 14 14 14 14 14 14 14 14 14 14 14 14 15 15 15 15 15 15
18 18 18 18 18 18 17 17 17 17 17 16 16 16 15 15 15 15 15 14 14 14 14 14 14 14 14 14 14 14 14 14 14 14 14 14 14 14 14 15 15 15 14
18 18 18 17 18 18 17 17 17 17 17 16 16 16 16 15 15 15 15 15 14 14 14 14 14 14 14 14 14 14 14 14 14 14 14 14 14 14 14 14 14 14 14
18 18 18 17 18 17 17 17 17 17 16 16 16 16 16 15 15 15 15 15 15 14 14 14 14 14 14 14 14 14 14 14 14 14 14 14 14 14 14 14 14 14 15
18 18 18 17 17 17 17 17 17 17 16 16 16 16 16 15 15 15 15 15 15 14 14 14 14 14 14 14 14 14 14 14 13 13 13 13 14 14 13 13 14 14 14
18 18 18 17 17 17 17 17 17 16 16 16 16 16 16 15 15 15 15 15 14 14 14 14 14 14 14 14 14 14 14 14 14 14 14 13 13 13 13 13 13 13 14
18 18 17 17 17 17 17 17 16 16 16 16 16 16 15 15 15 15 15 15 14 14 14 14 14 14 14 14 14 14 13 13 13 13 13 13 13 13 13 13 13 13 13
18 17 17 17 17 17 17 17 16 16 16 16 16 15 15 15 15 15 15 14 14 14 14 14 14 14 14 14 13 13 13 13 13 13 13 13 13 13 13 13 13 13 13
17 17 17 17 17 17 17 16 16 16 16 16 15 15 15 15 15 14 14 14 14 14 14 14 13 13 13 13 13 13 13 13 13 13 13 13 13 13 13 13 13 13 13
17 17 17 17 17 17 17 16 16 16 16 15 15 15 15 15 14 14 14 14 14 13 13 13 13 13 13 13 13 13 13 13 13 13 13 13 13 13 13 13 13 12 12
17 17 17 17 17 16 16 16 16 16 16 15 15 15 15 15 14 14 14 14 13 13 13 13 13 13 13 13 13 13 12 12 12 12 12 13 13 13 13 12 12 12 12
17 17 17 17 17 17 16 16 16 16 15 15 15 15 14 14 14 14 14 13 13 13 13 13 12 12 12 12 13 12 12 12 12 12 12 12 12 12 12 12 12 12 12
17 17 17 17 17 17 16 16 16 15 15 15 15 15 14 14 14 14 14 13 13 13 13 12 12 12 12 12 12 12 12 12 12 12 12 12 12 12 12 12 12 12 12
17 17 17 17 16 16 16 16 15 15 15 15 14 14 14 14 14 14 13 13 13 13 12 12 12 12 12 12 12 12 11 11 11 11 11 11 11 11 11 11 11 11 11
17 17 17 17 16 16 16 15 15 15 15 14 14 14 14 14 13 13 13 13 12 12 12 12 12 11 11 11 11 11 11 11 11 11 11 11 11 11 11 11 10 11 11
17 17 17 16 16 16 15 15 15 15 14 14 14 14 14 13 13 13 13 12 12 12 12 11 11 11 11 11 11 11 10 10 10 10 10 10 10 10 10 10 10 10 10
17 17 16 16 16 16 15 15 14 14 14 14 14 13 13 13 13 12 12 12 12 11 11 11 11 11 11 11 11 11 10 10 10 10 10 10 10 10 10 10 9 10 10
16 16 16 16 16 15 15 15 14 14 14 13 13 13 13 12 12 12 12 11 11 11 11 11 10 10 10 10 10 10 10 10 9 9 9 9 10 10 10 9 9 9 9
16 16 15 15 15 15 14 14 14 14 13 13 13 12 12 12 12 11 11 11 11 10 10 10 10 10 10 10 10 9 9 9 9 9 9 9 9 9 9 9 9 9 9
15 15 15 15 14 14 14 14 13 13 13 12 12 12 11 11 11 11 10 10 10 10 10 9 9 9 9 9 9 9 9 9 9 8 8 8 8 8 8 8 8 8 8
14 14 14 14 14 14 13 13 13 12 12 11 11 11 11 11 10 10 10 10 10 9 9 9 9 8 8 8 9 8 8 8 8 8 8 8 8 8 8 8 8 7 7
14 14 13 13 13 13 13 12 12 12 11 11 10 10 10 10 10 9 9 9 9 9 9 9 9 8 8 8 8 8 8 8 8 7 7 7 7 7 7 7 7 7 7
Wind_Speed
6 6 6 6 6 5 5 5 5 5 4 3 3 2 3 3 3 4 5 5 5 6 5 4 5 4 4 4 4 3 3 3 3 1 2 2 3 3 3 3 3 3 4
7 7 7 7 6 6 5 5 5 5 4 2 2 2 2 2 3 3 4 5 5 6 5 5 4 4 3 4 4 3 3 3 3 3 1 1 2 2 3 3 3 4 3
7 8 7 7 6 6 5 5 5 5 3 3 3 3 3 2 2 2 3 4 5 5 5 5 4 4 4 4 4 4 4 3 3 4 3 2 2 1 2 3 3 4 3
7 7 7 7 6 5 5 5 5 5 4 3 3 3 2 2 2 2 2 2 4 4 5 5 4 4 4 3 4 4 3 3 3 2 3 3 2 2 1 1 3 3 3
8 8 7 7 7 6 5 5 5 5 4 3 3 2 2 2 2 2 2 2 3 4 5 5 4 4 4 4 4 4 4 3 3 3 2 2 1 2 2 1 2 2 3
9 8 7 6 6 6 5 5 5 5 4 3 3 2 2 2 2 2 2 2 2 3 4 4 4 4 4 4 4 4 4 3 3 3 2 2 2 3 2 2 3 3 3
10 9 8 7 7 6 6 5 5 5 4 3 3 3 2 1 1 1 2 2 2 3 4 4 4 4 4 4 3 3 3 3 3 3 3 3 3 3 3 3 3 3 2
10 10 9 8 7 7 6 6 6 5 4 3 3 2 3 1 1 1 2 2 2 3 4 4 4 4 3 3 3 3 3 3 3 3 3 2 3 3 3 3 3 3 2
11 10 9 8 8 7 7 6 6 5 4 4 3 3 2 1 1 1 1 2 2 3 3 3 3 3 3 3 3 2 3 3 3 3 3 2 2 3 3 3 3 3 3
11 10 9 9 8 7 6 6 6 5 4 4 3 3 2 2 1 1 2 2 3 3 3 3 3 3 3 2 2 2 3 3 3 3 3 3 2 3 3 3 3 3 3
11 10 9 8 8 7 7 6 5 5 4 3 3 3 2 2 1 1 1 1 2 2 3 3 3 3 3 3 2 3 3 3 3 3 3 3 3 3 2 3 3 3 3
11 10 10 9 8 7 7 6 5 5 4 3 3 2 2 2 1 1 1 1 2 2 2 3 3 4 3 4 3 3 3 3 4 4 3 3 3 3 3 3 4 3 3
11 11 10 9 8 7 7 6 5 5 4 4 3 3 2 2 1 1 1 1 1 1 2 2 3 3 3 3 3 3 3 4 4 4 4 4 4 4 4 4 4 4 4
12 11 10 9 8 7 6 6 5 4 4 4 3 3 2 2 1 1 1 1 1 1 1 2 2 3 3 3 4 4 4 4 4 4 5 5 5 5 5 5 5 5 5
12 12 10 9 8 7 6 6 5 5 5 4 4 3 2 2 1 1 1 1 1 1 1 2 2 3 3 4 5 5 5 4 4 5 5 5 5 6 6 5 6 6 5
13 12 11 10 9 8 7 6 6 5 5 4 3 3 2 2 1 1 1 1 1 1 1 1 2 2 3 5 7 7 5 5 5 5 5 5 4 4 4 5 6 7 7
12 12 11 10 9 8 8 7 6 6 5 4 3 3 2 2 1 1 1 0 0 1 1 2 2 2 3 5 6 7 6 6 5 6 6 5 5 5 6 5 6 7 7
11 10 10 9 8 8 7 7 6 6 5 4 3 2 2 1 1 0 0 1 1 1 1 2 2 2 3 5 6 8 6 5 5 6 6 6 7 7 8 8 8 8 7
10 9 9 9 9 8 8 7 7 6 5 4 3 2 2 1 1 0 0 1 1 1 2 2 2 3 2 4 6 8 5 5 6 6 6 6 7 8 10 9 9 9 8
9 9 9 9 9 8 8 8 7 6 4 3 3 2 2 1 1 0 1 1 1 2 2 2 3 3 4 4 6 8 5 6 6 6 6 4 6 9 10 9 9 10 10
10 10 10 9 8 8 8 7 6 5 4 3 3 2 2 1 1 0 1 1 1 2 3 3 3 3 3 3 4 7 5 6 7 6 6 5 6 8 11 11 10 10 11
10 10 9 8 8 8 8 7 5 4 4 3 3 2 2 1 1 0 1 1 2 2 3 3 3 3 3 3 3 5 6 9 8 7 7 7 8 11 12 10 9 11 12
10 9 9 9 7 7 6 6 5 5 4 4 3 2 2 1 0 0 1 2 2 3 3 3 4 4 4 3 3 5 7 8 7 8 8 10 11 12 11 8 10 10 9
10 9 10 9 8 6 5 5 5 4 4 3 2 2 1 0 0 1 2 2 3 3 4 4 5 5 5 5 5 6 6 7 8 8 8 10 11 10 10 9 8 8 8
9 9 9 9 8 7 6 5 4 4 4 3 2 1 0 1 1 1 2 3 3 4 5 5 6 6 7 6 8 8 8 8 9 10 9 9 8 8 8 8 8 8 8
9 9 9 8 8 7 5 4 3 3 3 2 1 1 1 1 2 2 2 2 3 3 4 6 7 6 7 9 10 10 11 11 10 10 9 9 9 9 9 9 9 9 8
Wind_Direction
149 147 149 152 154 154 151 141 141 134 129 114 113 106 100 94 82 62 50 39 30 26 27 21 26 16 27 23 23 28 35 26 12 12 74 93 88 67 66 40 29 41 35
152 149 155 158 161 159 161 155 148 141 135 115 101 93 96 90 74 64 51 35 30 25 22 26 26 27 26 27 24 18 5 28 12 346 344 109 123 71 60 54 38 33 35
165 161 163 164 163 165 163 159 154 146 141 138 123 119 120 129 112 81 52 33 28 26 19 19 20 17 21 28 19 11 6 6 18 13 353 352 27 26 74 47 42 35 24
170 165 168 169 169 167 163 163 155 153 150 155 148 128 109 89 70 50 49 48 40 33 23 19 19 21 23 24 18 21 7 358 6 21 8 1 356 327 6 63 45 34 27
174 171 172 169 165 161 162 162 156 152 150 154 140 150 109 86 86 77 61 48 51 37 30 21 22 26 26 22 19 17 9 6 359 1 3 3 341 312 327 345 359 16 24
168 169 169 164 157 156 158 156 153 145 146 154 154 144 111 97 91 66 48 44 52 37 34 20 21 26 26 25 21 22 27 15 9 356 357 346 334 338 333 327 334 352 359
168 169 168 167 163 163 161 156 153 148 151 155 147 138 131 119 90 58 52 30 38 32 24 18 20 25 21 23 20 25 23 24 13 3 358 352 345 340 325 315 325 329 331
168 170 169 167 165 162 160 157 152 147 145 146 136 130 127 117 71 45 29 33 33 27 16 12 19 21 19 19 25 17 18 13 15 14 2 347 348 345 337 321 316 318 327
168 166 162 160 160 160 160 158 150 145 141 139 132 124 115 104 80 72 50 39 30 23 16 13 20 25 22 16 15 16 11 5 1 360 358 353 355 345 343 327 313 308 311
163 160 158 156 155 153 153 153 150 144 139 136 132 125 125 121 82 65 56 37 31 30 17 16 19 22 24 19 14 9 2 6 9 349 346 344 343 350 339 324 315 312 305
160 157 155 152 150 150 151 153 152 146 142 140 134 136 133 122 105 74 54 32 32 31 22 24 21 20 15 12 10 2 3 354 356 348 343 338 337 327 321 320 314 304 302
155 153 151 148 150 152 153 154 154 149 146 147 144 136 125 121 107 77 57 44 43 36 33 32 25 25 20 14 7 360 352 347 345 344 339 336 331 319 314 310 304 301 296
153 152 151 152 153 153 153 154 154 150 147 148 146 142 135 124 110 80 58 43 45 46 47 38 27 22 19 16 7 1 353 343 338 335 332 329 324 315 316 305 302 302 298
158 157 157 157 155 154 154 153 150 147 146 148 146 140 131 122 120 98 76 45 42 36 30 23 18 11 6 3 360 354 347 341 336 331 329 328 327 322 319 310 308 305 298
165 166 165 162 159 156 154 151 149 147 149 148 145 138 130 121 113 94 87 73 37 9 15 8 7 6 356 1 350 340 335 332 332 329 329 337 340 339 325 316 311 306 297
173 172 168 166 166 163 158 154 154 151 149 146 137 131 131 122 117 107 78 76 39 353 354 346 357 4 3 13 349 328 326 327 327 329 327 325 320 323 297 300 301 299 294
175 175 173 171 168 164 159 158 156 151 151 145 135 139 139 125 125 126 94 68 327 348 336 333 341 343 11 11 346 328 320 319 324 325 327 328 326 320 320 299 263 266 258
174 173 172 166 161 156 153 150 147 150 151 145 141 136 138 132 128 99 18 315 326 341 323 333 331 331 357 1 341 324 311 315 317 319 322 323 326 336 328 313 306 303 297
169 164 163 157 154 152 150 149 149 149 146 143 144 141 144 140 132 100 326 309 312 316 307 316 319 318 344 12 345 321 314 312 315 319 323 324 325 346 327 311 305 303 302
151 149 151 150 150 151 151 153 152 150 148 146 145 135 133 144 153 357 329 322 307 296 296 305 307 315 327 11 347 323 314 315 317 318 314 329 331 331 323 313 306 302 306
146 146 149 149 149 151 155 155 152 148 140 141 139 134 138 149 145 79 320 304 303 302 301 302 303 310 324 344 351 332 320 318 314 314 313 322 335 318 312 305 302 305 305
145 148 147 143 145 153 159 154 147 136 131 132 133 137 137 133 132 99 322 308 307 299 299 298 301 303 311 331 337 322 313 314 307 306 308 318 324 309 299 297 303 301 294
148 150 147 141 142 151 159 151 141 140 141 141 140 139 136 128 134 245 291 298 301 302 304 301 300 304 311 307 285 287 291 295 298 302 311 306 298 295 288 281 283 286 285
148 150 149 146 143 143 143 135 137 149 155 155 153 153 160 160 240 289 288 295 301 302 303 304 303 303 302 307 317 312 303 291 292 301 299 283 275 275 282 286 283 285 290
147 150 151 149 145 143 137 131 140 155 163 162 160 162 170 273 289 291 305 298 305 312 299 300 301 302 300 322 328 311 307 308 307 307 297 295 297 297 297 296 296 295 293
148 150 151 148 145 144 138 135 145 161 167 166 172 199 243 272 281 287 289 269 273 295 282 285 291 294 302 313 307 301 301 301 300 296 290 291 294 296 298 299 299 297 295
Height
1549 1551 1552 1554 1556 1557 1559 1559 1560 1560 1560 1561 1561 1561 1561 1561 1560 1559 1558 1557 1556 1554 1553 1552 1551 1550 1549 1548 1547 1547 1546 1545 1544 1544 1543 1542 1542 1542 1541 1540 1540 1540 1539
1549 1551 1553 1554 1556 1557 1558 1560 1560 1561 1561 1561 1562 1561 1561 1561 1560 1559 1559 1558 1556 1555 1554 1553 1552 1551 1549 1548 1548 1547 1546 1546 1545 1545 1544 1543 1544 1543 1542 1541 1541 1540 1540
1548 1551 1552 1554 1556 1557 1558 1559 1560 1561 1561 1562 1562 1562 1561 1562 1561 1561 1560 1558 1557 1556 1555 1554 1553 1551 1551 1549 1548 1547 1547 1546 1546 1545 1545 1544 1543 1543 1543 1542 1542 1541 1540
1548 1550 1552 1554 1555 1557 1558 1559 1560 1561 1562 1562 1562 1563 1563 1563 1562 1562 1560 1559 1558 1556 1555 1554 1553 1552 1551 1550 1549 1548 1547 1547 1546 1546 1545 1545 1545 1544 1544 1543 1542 1541 1540
1547 1549 1551 1553 1555 1557 1558 1559 1560 1561 1562 1562 1562 1563 1563 1563 1562 1562 1561 1560 1559 1557 1556 1555 1554 1553 1552 1551 1550 1549 1548 1548 1547 1547 1546 1545 1545 1545 1544 1543 1543 1542 1541
1546 1549 1551 1553 1555 1556 1557 1559 1560 1561 1561 1562 1563 1563 1563 1563 1563 1562 1562 1561 1560 1558 1557 1556 1555 1554 1553 1552 1550 1550 1549 1548 1547 1547 1546 1546 1546 1545 1544 1543 1542 1542 1541
1544 1547 1549 1551 1553 1555 1556 1558 1559 1560 1561 1562 1563 1563 1563 1563 1563 1563 1562 1561 1561 1559 1558 1557 1556 1555 1553 1552 1551 1550 1550 1549 1548 1547 1547 1546 1546 1545 1544 1543 1542 1541 1541
1543 1546 1548 1550 1552 1554 1556 1557 1559 1560 1561 1562 1562 1563 1563 1563 1563 1562 1562 1561 1561 1560 1558 1557 1556 1555 1554 1553 1552 1551 1550 1550 1549 1548 1547 1546 1545 1545 1544 1543 1543 1541 1541
1542 1545 1547 1549 1552 1554 1555 1557 1558 1559 1560 1561 1562 1562 1563 1563 1562 1562 1562 1561 1561 1560 1559 1558 1557 1556 1554 1553 1552 1552 1551 1550 1549 1548 1547 1546 1545 1545 1544 1543 1542 1542 1540
1541 1544 1546 1549 1551 1553 1555 1556 1558 1559 1560 1561 1561 1561 1562 1562 1562 1562 1561 1561 1560 1560 1559 1558 1557 1556 1555 1554 1553 1552 1551 1550 1549 1548 1547 1546 1546 1544 1543 1542 1542 1541 1541
1539 1543 1545 1548 1550 1553 1554 1556 1557 1558 1559 1560 1561 1561 1561 1561 1561 1561 1561 1560 1560 1559 1559 1558 1557 1556 1555 1554 1553 1552 1551 1550 1550 1548 1547 1546 1545 1544 1543 1542 1541 1540 1539
1539 1542 1545 1547 1550 1552 1554 1555 1557 1558 1559 1559 1560 1561 1561 1561 1561 1561 1560 1560 1559 1559 1558 1558 1557 1556 1555 1554 1553 1552 1551 1550 1549 1548 1547 1546 1544 1543 1543 1541 1540 1539 1538
1539 1542 1544 1547 1549 1551 1553 1555 1556 1557 1558 1559 1559 1560 1560 1560 1560 1560 1559 1559 1559 1558 1558 1557 1556 1555 1554 1553 1552 1551 1550 1549 1549 1548 1546 1545 1544 1543 1542 1540 1540 1538 1537
1538 1541 1543 1546 1548 1550 1552 1554 1555 1556 1557 1558 1559 1559 1559 1559 1559 1559 1559 1558 1558 1557 1557 1556 1555 1554 1554 1553 1552 1551 1549 1548 1547 1546 1545 1544 1543 1542 1540 1539 1538 1537 1535
1537 1540 1542 1545 1547 1549 1551 1553 1554 1555 1556 1557 1558 1558 1558 1558 1558 1558 1558 1557 1557 1557 1556 1555 1554 1553 1552 1551 1550 1549 1548 1547 1546 1545 1543 1542 1540 1539 1538 1537 1536 1534 1533
1535 1539 1541 1544 1546 1548 1550 1551 1553 1554 1555 1556 1557 1557 1557 1557 1557 1557 1557 1556 1556 1555 1555 1554 1553 1552 1551 1550 1549 1548 1547 1546 1544 1543 1541 1540 1538 1537 1535 1534 1533 1532 1531
1534 1536 1539 1542 1545 1547 1548 1550 1552 1553 1554 1555 1555 1556 1556 1556 1556 1556 1555 1555 1554 1554 1553 1553 1552 1551 1550 1548 1547 1546 1545 1544 1542 1541 1539 1538 1536 1534 1533 1531 1530 1528 1527
1532 1534 1538 1540 1543 1545 1547 1549 1551 1552 1553 1554 1554 1554 1555 1555 1554 1554 1554 1553 1553 1552 1552 1551 1550 1549 1548 1546 1545 1544 1543 1542 1540 1539 1537 1535 1533 1532 1530 1528 1527 1526 1524
1530 1533 1536 1539 1541 1544 1546 1548 1549 1550 1551 1552 1552 1553 1553 1553 1553 1552 1552 1551 1551 1550 1550 1549 1548 1547 1546 1544 1543 1541 1540 1539 1538 1536 1534 1533 1531 1528 1526 1525 1523 1521 1520
1528 1531 1534 1537 1540 1542 1544 1546 1548 1549 1550 1550 1551 1551 1551 1551 1551 1550 1550 1549 1549 1548 1547 1547 1546 1545 1544 1542 1541 1539 1538 1537 1535 1533 1531 1529 1527 1525 1523 1522 1520 1518 1516
1527 1530 1533 1535 1538 1540 1543 1545 1546 1547 1548 1548 1549 1549 1549 1549 1549 1548 1548 1547 1547 1546 1545 1544 1543 1542 1541 1539 1538 1537 1535 1534 1532 1531 1529 1526 1524 1522 1519 1517 1515 1513 1511
1525 1528 1531 1534 1537 1539 1541 1543 1545 1546 1546 1547 1547 1547 1547 1547 1547 1546 1546 1545 1544 1543 1543 1542 1541 1540 1538 1537 1535 1534 1532 1530 1529 1527 1525 1523 1520 1517 1515 1513 1510 1508 1506
1524 1527 1530 1533 1535 1538 1540 1542 1543 1544 1544 1545 1545 1545 1545 1545 1545 1544 1544 1543 1542 1541 1540 1539 1538 1537 1535 1534 1532 1530 1528 1526 1524 1522 1520 1517 1515 1512 1510 1508 1505 1503 1502
1523 1526 1529 1531 1534 1536 1538 1540 1541 1542 1543 1543 1544 1544 1544 1543 1543 1542 1541 1541 1540 1539 1538 1536 1535 1533 1532 1530 1528 1526 1524 1522 1520 1518 1515 1512 1510 1507 1505 1503 1501 1499 1497
1522 1525 1528 1530 1532 1534 1536 1538 1539 1540 1541 1541 1542 1542 1541 1541 1540 1539 1539 1538 1537 1536 1535 1533 1532 1530 1528 1526 1524 1522 1520 1518 1516 1513 1510 1508 1506 1503 1501 1499 1497 1494 1492
1521 1524 1527 1529 1531 1533 1534 1536 1537 1538 1539 1539 1539 1539 1539 1538 1537 1536 1536 1534 1533 1532 1530 1529 1527 1525 1524 1521 1519 1517 1515 1513 1510 1508 1505 1503 1501 1499 1496 1494 1491 1489 1487